#Datum;Uhrzeit;WR;Pac;DaySum;Status;WR;Pac;DaySum;Status;Pdc1;Udc;Temp;WR;Pac;DaySum;Status;Pdc1;Udc;Temp;WR;Pac;DaySum;Status;Pdc1;Udc;Temp;WR;Pac;DaySum;Status;Pdc1;Pdc2;Udc1;Udc2;Temp;WR;Pac;DaySum;Status;Pdc1;Pdc2;Udc1;Udc2;Temp;WR;Pac;DaySum;Status;Pdc1;Udc;Temp;WR;Pac;DaySum;Status;Pdc1;Udc;Temp;WR;Pac;DaySum;Status;Pdc1;Udc;Temp
10.03.19;23:55:00;1;233;7285;0;2;0;6182;0;0;0;0;3;0;3603;0;0;0;0;4;0;5161;0;0;0;0;5;0;10902;0;0;0;0;0;0;6;0;8109;0;0;0;0;0;0;7;0;6468;0;0;0;0;8;0;6351;0;0;0;0;9;0;3211;0;0;0;0
10.03.19;23:50:00;1;234;7265;0;2;0;6182;0;0;0;0;3;0;3603;0;0;0;0;4;0;5161;0;0;0;0;5;0;10902;0;0;0;0;0;0;6;0;8109;0;0;0;0;0;0;7;0;6468;0;0;0;0;8;0;6351;0;0;0;0;9;0;3211;0;0;0;0
10.03.19;23:45:00;1;269;7246;0;2;0;6182;0;0;0;0;3;0;3603;0;0;0;0;4;0;5161;0;0;0;0;5;0;10902;0;0;0;0;0;0;6;0;8109;0;0;0;0;0;0;7;0;6468;0;0;0;0;8;0;6351;0;0;0;0;9;0;3211;0;0;0;0
10.03.19;23:40:00;1;276;7223;0;2;0;6182;0;0;0;0;3;0;3603;0;0;0;0;4;0;5161;0;0;0;0;5;0;10902;0;0;0;0;0;0;6;0;8109;0;0;0;0;0;0;7;0;6468;0;0;0;0;8;0;6351;0;0;0;0;9;0;3211;0;0;0;0
10.03.19;23:35:00;1;261;7200;0;2;0;6182;0;0;0;0;3;0;3603;0;0;0;0;4;0;5161;0;0;0;0;5;0;10902;0;0;0;0;0;0;6;0;8109;0;0;0;0;0;0;7;0;6468;0;0;0;0;8;0;6351;0;0;0;0;9;0;3211;0;0;0;0
10.03.19;23:30:00;1;234;7178;0;2;0;6182;0;0;0;0;3;0;3603;0;0;0;0;4;0;5161;0;0;0;0;5;0;10902;0;0;0;0;0;0;6;0;8109;0;0;0;0;0;0;7;0;6468;0;0;0;0;8;0;6351;0;0;0;0;9;0;3211;0;0;0;0
10.03.19;23:25:00;1;254;7158;0;2;0;6182;0;0;0;0;3;0;3603;0;0;0;0;4;0;5161;0;0;0;0;5;0;10902;0;0;0;0;0;0;6;0;8109;0;0;0;0;0;0;7;0;6468;0;0;0;0;8;0;6351;0;0;0;0;9;0;3211;0;0;0;0
10.03.19;23:20:00;1;322;7137;0;2;0;6182;0;0;0;0;3;0;3603;0;0;0;0;4;0;5161;0;0;0;0;5;0;10902;0;0;0;0;0;0;6;0;8109;0;0;0;0;0;0;7;0;6468;0;0;0;0;8;0;6351;0;0;0;0;9;0;3211;0;0;0;0
10.03.19;23:15:00;1;400;7110;0;2;0;6182;0;0;0;0;3;0;3603;0;0;0;0;4;0;5161;0;0;0;0;5;0;10902;0;0;0;0;0;0;6;0;8109;0;0;0;0;0;0;7;0;6468;0;0;0;0;8;0;6351;0;0;0;0;9;0;3211;0;0;0;0
10.03.19;23:10:00;1;417;7076;0;2;0;6182;0;0;0;0;3;0;3603;0;0;0;0;4;0;5161;0;0;0;0;5;0;10902;0;0;0;0;0;0;6;0;8109;0;0;0;0;0;0;7;0;6468;0;0;0;0;8;0;6351;0;0;0;0;9;0;3211;0;0;0;0
10.03.19;23:07:00;1;417;7055;0;2;0;6182;0;0;0;0;3;0;3603;0;0;0;0;4;0;5161;0;0;0;0;5;0;10902;0;0;0;0;0;0;6;0;8109;0;0;0;0;0;0;7;0;6468;0;0;0;0;8;0;6351;0;0;0;0;9;0;3211;0;0;0;0
10.03.19;23:00:00;1;429;7007;0;2;0;6182;0;0;0;0;3;0;3603;0;0;0;0;4;0;5161;0;0;0;0;5;0;10902;0;0;0;0;0;0;6;0;8109;0;0;0;0;0;0;7;0;6468;0;0;0;0;8;0;6351;0;0;0;0;9;0;3211;0;0;0;0
10.03.19;22:55:00;1;469;6971;0;2;0;6182;0;0;0;0;3;0;3603;0;0;0;0;4;0;5161;0;0;0;0;5;0;10902;2;0;0;0;0;0;6;0;8109;2;0;0;0;0;0;7;0;6468;0;0;0;0;8;0;6351;0;0;0;0;9;0;3211;0;0;0;0
10.03.19;22:50:00;1;469;6932;0;2;0;6182;0;0;0;0;3;0;3603;0;0;0;0;4;0;5161;0;0;0;0;5;0;10902;2;0;0;0;0;0;6;0;8109;2;0;0;0;0;0;7;0;6468;0;0;0;0;8;0;6351;0;0;0;0;9;0;3211;0;0;0;0
10.03.19;22:45:00;1;395;6892;0;2;0;6182;0;0;0;0;3;0;3603;0;0;0;0;4;0;5161;0;0;0;0;5;0;10902;2;0;0;0;0;0;6;0;8109;2;0;0;0;0;0;7;0;6468;0;0;0;0;8;0;6351;0;0;0;0;9;0;3211;0;0;0;0
10.03.19;22:40:00;1;369;6858;0;2;0;6182;0;0;0;0;3;0;3603;0;0;0;0;4;0;5161;0;0;0;0;5;0;10902;2;0;0;0;0;0;6;0;8109;2;0;0;0;0;0;7;0;6468;0;0;0;0;8;0;6351;0;0;0;0;9;0;3211;0;0;0;0
10.03.19;22:35:00;1;331;6828;0;2;0;6182;0;0;0;0;3;0;3603;0;0;0;0;4;0;5161;0;0;0;0;5;0;10902;2;0;0;0;0;0;6;0;8109;2;0;0;0;0;0;7;0;6468;0;0;0;0;8;0;6351;0;0;0;0;9;0;3211;0;0;0;0
10.03.19;22:30:00;1;1373;6800;0;2;0;6182;0;0;0;0;3;0;3603;0;0;0;0;4;0;5161;0;0;0;0;5;0;10902;2;0;0;0;0;0;6;0;8109;2;0;0;0;0;0;7;0;6468;0;0;0;0;8;0;6351;0;0;0;0;9;0;3211;0;0;0;0
10.03.19;22:25:00;1;717;6675;0;2;0;6182;0;0;0;0;3;0;3603;0;0;0;0;4;0;5161;0;0;0;0;5;0;10902;2;0;0;0;0;0;6;0;8109;2;0;0;0;0;0;7;0;6468;0;0;0;0;8;0;6351;0;0;0;0;9;0;3211;0;0;0;0
10.03.19;22:15:00;1;338;6567;0;2;0;6182;0;0;0;0;3;0;3603;0;0;0;0;4;0;5161;0;0;0;0;5;0;10902;2;0;0;0;0;0;6;0;8109;2;0;0;0;0;0;7;0;6468;0;0;0;0;8;0;6351;0;0;0;0;9;0;3211;0;0;0;0
10.03.19;22:10:00;1;368;6539;0;2;0;6182;0;0;0;0;3;0;3603;0;0;0;0;4;0;5161;0;0;0;0;5;0;10902;2;0;0;0;0;0;6;0;8109;2;0;0;0;0;0;7;0;6468;0;0;0;0;8;0;6351;0;0;0;0;9;0;3211;0;0;0;0
10.03.19;22:05:00;1;391;6507;0;2;0;6182;0;0;0;0;3;0;3603;0;0;0;0;4;0;5161;0;0;0;0;5;0;10902;2;0;0;0;0;0;6;0;8109;2;0;0;0;0;0;7;0;6468;0;0;0;0;8;0;6351;0;0;0;0;9;0;3211;0;0;0;0
10.03.19;22:00:00;1;1193;6475;0;2;0;6182;0;0;0;0;3;0;3603;0;0;0;0;4;0;5161;0;0;0;0;5;0;10902;2;0;0;0;0;0;6;0;8109;2;0;0;0;0;0;7;0;6468;0;0;0;0;8;0;6351;0;0;0;0;9;0;3211;0;0;0;0
10.03.19;21:55:00;1;1606;6371;0;2;0;6182;0;0;0;0;3;0;3603;0;0;0;0;4;0;5161;0;0;0;0;5;0;10902;2;0;0;0;0;0;6;0;8109;2;0;0;0;0;0;7;0;6468;0;0;0;0;8;0;6351;0;0;0;0;9;0;3211;0;0;0;0
10.03.19;21:50:00;1;284;6252;0;2;0;6182;0;0;0;0;3;0;3603;0;0;0;0;4;0;5161;0;0;0;0;5;0;10902;2;0;0;0;0;0;6;0;8109;2;0;0;0;0;0;7;0;6468;0;0;0;0;8;0;6351;0;0;0;0;9;0;3211;0;0;0;0
10.03.19;21:45:00;1;271;6229;0;2;0;6182;0;0;0;0;3;0;3603;0;0;0;0;4;0;5161;0;0;0;0;5;0;10902;2;0;0;0;0;0;6;0;8109;2;0;0;0;0;0;7;0;6468;0;0;0;0;8;0;6351;0;0;0;0;9;0;3211;0;0;0;0
10.03.19;21:40:00;1;271;6206;0;2;0;6182;0;0;0;0;3;0;3603;0;0;0;0;4;0;5161;0;0;0;0;5;0;10902;2;0;0;0;0;0;6;0;8109;2;0;0;0;0;0;7;0;6468;0;0;0;0;8;0;6351;0;0;0;0;9;0;3211;0;0;0;0
10.03.19;21:35:00;1;657;6183;0;2;0;6182;0;0;0;0;3;0;3603;0;0;0;0;4;0;5161;0;0;0;0;5;0;10902;2;0;0;0;0;0;6;0;8109;2;0;0;0;0;0;7;0;6468;0;0;0;0;8;0;6351;0;0;0;0;9;0;3211;0;0;0;0
10.03.19;21:30:00;1;1216;6123;0;2;0;6182;0;0;0;0;3;0;3603;0;0;0;0;4;0;5161;0;0;0;0;5;0;10902;2;0;0;0;0;0;6;0;8109;2;0;0;0;0;0;7;0;6468;0;0;0;0;8;0;6351;0;0;0;0;9;0;3211;0;0;0;0
10.03.19;21:25:00;1;2293;6045;0;2;0;6182;0;0;0;0;3;0;3603;0;0;0;0;4;0;5161;0;0;0;0;5;0;10902;2;0;0;0;0;0;6;0;8109;2;0;0;0;0;0;7;0;6468;0;0;0;0;8;0;6351;0;0;0;0;9;0;3211;0;0;0;0
10.03.19;21:20:00;1;1312;5864;0;2;0;6182;0;0;0;0;3;0;3603;0;0;0;0;4;0;5161;0;0;0;0;5;0;10902;2;0;0;0;0;0;6;0;8109;2;0;0;0;0;0;7;0;6468;0;0;0;0;8;0;6351;0;0;0;0;9;0;3211;0;0;0;0
10.03.19;21:15:00;1;251;5766;0;2;0;6182;0;0;0;0;3;0;3603;0;0;0;0;4;0;5161;0;0;0;0;5;0;10902;2;0;0;0;0;0;6;0;8109;2;0;0;0;0;0;7;0;6468;0;0;0;0;8;0;6351;0;0;0;0;9;0;3211;0;0;0;0
10.03.19;21:10:00;1;235;5745;0;2;0;6182;0;0;0;0;3;0;3603;0;0;0;0;4;0;5161;0;0;0;0;5;0;10902;2;0;0;0;0;0;6;0;8109;2;0;0;0;0;0;7;0;6468;0;0;0;0;8;0;6351;0;0;0;0;9;0;3211;0;0;0;0
10.03.19;21:05:00;1;261;5725;0;2;0;6182;0;0;0;0;3;0;3603;0;0;0;0;4;0;5161;0;0;0;0;5;0;10902;2;0;0;0;0;0;6;0;8109;2;0;0;0;0;0;7;0;6468;0;0;0;0;8;0;6351;0;0;0;0;9;0;3211;0;0;0;0
10.03.19;21:00:00;1;270;5704;0;2;0;6182;0;0;0;0;3;0;3603;0;0;0;0;4;0;5161;0;0;0;0;5;0;10902;2;0;0;0;0;0;6;0;8109;2;0;0;0;0;0;7;0;6468;0;0;0;0;8;0;6351;0;0;0;0;9;0;3211;0;0;0;0
10.03.19;20:55:00;1;272;5681;0;2;0;6182;0;0;0;0;3;0;3603;0;0;0;0;4;0;5161;0;0;0;0;5;0;10902;2;0;0;0;0;0;6;0;8109;2;0;0;0;0;0;7;0;6468;0;0;0;0;8;0;6351;0;0;0;0;9;0;3211;0;0;0;0
10.03.19;20:50:00;1;273;5658;0;2;0;6182;0;0;0;0;3;0;3603;0;0;0;0;4;0;5161;0;0;0;0;5;0;10902;2;0;0;0;0;0;6;0;8109;2;0;0;0;0;0;7;0;6468;0;0;0;0;8;0;6351;0;0;0;0;9;0;3211;0;0;0;0
10.03.19;20:45:00;1;273;5636;0;2;0;6182;0;0;0;0;3;0;3603;0;0;0;0;4;0;5161;0;0;0;0;5;0;10902;2;0;0;0;0;0;6;0;8109;2;0;0;0;0;0;7;0;6468;0;0;0;0;8;0;6351;0;0;0;0;9;0;3211;0;0;0;0
10.03.19;20:40:00;1;274;5613;0;2;0;6182;0;0;0;0;3;0;3603;0;0;0;0;4;0;5161;0;0;0;0;5;0;10902;2;0;0;0;0;0;6;0;8109;2;0;0;0;0;0;7;0;6468;0;0;0;0;8;0;6351;0;0;0;0;9;0;3211;0;0;0;0
10.03.19;20:35:00;1;285;5590;0;2;0;6182;0;0;0;0;3;0;3603;0;0;0;0;4;0;5161;0;0;0;0;5;0;10902;2;0;0;0;0;0;6;0;8109;2;0;0;0;0;0;7;0;6468;0;0;0;0;8;0;6351;0;0;0;0;9;0;3211;0;0;0;0
10.03.19;20:30:00;1;286;5566;0;2;0;6182;0;0;0;0;3;0;3603;0;0;0;0;4;0;5161;0;0;0;0;5;0;10902;2;0;0;0;0;0;6;0;8109;2;0;0;0;0;0;7;0;6468;0;0;0;0;8;0;6351;0;0;0;0;9;0;3211;0;0;0;0
10.03.19;20:25:00;1;251;5543;0;2;0;6182;0;0;0;0;3;0;3603;0;0;0;0;4;0;5161;0;0;0;0;5;0;10902;2;0;0;0;0;0;6;0;8109;2;0;0;0;0;0;7;0;6468;0;0;0;0;8;0;6351;0;0;0;0;9;0;3211;0;0;0;0
10.03.19;20:20:00;1;215;5522;0;2;0;6182;0;0;0;0;3;0;3603;0;0;0;0;4;0;5161;0;0;0;0;5;0;10902;2;0;0;0;0;0;6;0;8109;2;0;0;0;0;0;7;0;6468;0;0;0;0;8;0;6351;0;0;0;0;9;0;3211;0;0;0;0
10.03.19;20:15:00;1;208;5503;0;2;0;6182;0;0;0;0;3;0;3603;0;0;0;0;4;0;5161;0;0;0;0;5;0;10902;2;0;0;0;0;0;6;0;8109;2;0;0;0;0;0;7;0;6468;0;0;0;0;8;0;6351;0;0;0;0;9;0;3211;0;0;0;0
10.03.19;20:10:00;1;208;5486;0;2;0;6182;0;0;0;0;3;0;3603;0;0;0;0;4;0;5161;0;0;0;0;5;0;10902;2;0;0;0;0;0;6;0;8109;2;0;0;0;0;0;7;0;6468;0;0;0;0;8;0;6351;0;0;0;0;9;0;3211;0;0;0;0
10.03.19;20:05:00;1;208;5468;0;2;0;6182;0;0;0;0;3;0;3603;0;0;0;0;4;0;5161;0;0;0;0;5;0;10902;2;0;0;0;0;0;6;0;8109;2;0;0;0;0;0;7;0;6468;0;0;0;0;8;0;6351;0;0;0;0;9;0;3211;0;0;0;0
10.03.19;20:00:00;1;207;5451;0;2;0;6182;0;0;0;0;3;0;3603;0;0;0;0;4;0;5161;0;0;0;0;5;0;10902;2;0;0;0;0;0;6;0;8109;2;0;0;0;0;0;7;0;6468;0;0;0;0;8;0;6351;0;0;0;0;9;0;3211;0;0;0;0
10.03.19;19:55:00;1;207;5434;0;2;0;6182;0;0;0;0;3;0;3603;0;0;0;0;4;0;5161;0;0;0;0;5;0;10902;2;0;0;0;0;0;6;0;8109;2;0;0;0;0;0;7;0;6468;0;0;0;0;8;0;6351;0;0;0;0;9;0;3211;0;0;0;0
10.03.19;19:50:00;1;207;5416;0;2;0;6182;0;0;0;0;3;0;3603;0;0;0;0;4;0;5161;0;0;0;0;5;0;10902;2;0;0;0;0;0;6;0;8109;2;0;0;0;0;0;7;0;6468;0;0;0;0;8;0;6351;0;0;0;0;9;0;3211;0;0;0;0
10.03.19;19:45:00;1;238;5399;0;2;0;6182;0;0;0;0;3;0;3603;0;0;0;0;4;0;5161;0;0;0;0;5;0;10902;2;0;0;0;0;0;6;0;8109;2;0;0;0;0;0;7;0;6468;0;0;0;0;8;0;6351;0;0;0;0;9;0;3211;0;0;0;0
10.03.19;19:40:00;1;248;5379;0;2;0;6182;0;0;0;0;3;0;3603;0;0;0;0;4;0;5161;0;0;0;0;5;0;10902;2;0;0;0;0;0;6;0;8109;2;0;0;0;0;0;7;0;6468;0;0;0;0;8;0;6351;0;0;0;0;9;0;3211;0;0;0;0
10.03.19;19:35:00;1;240;5358;0;2;0;6182;0;0;0;0;3;0;3603;0;0;0;0;4;0;5161;0;0;0;0;5;0;10902;2;0;0;0;0;0;6;0;8109;2;0;0;0;0;0;7;0;6468;0;0;0;0;8;0;6351;0;0;0;0;9;0;3211;0;0;0;0
10.03.19;19:30:00;1;207;5338;0;2;0;6182;0;0;0;0;3;0;3603;0;0;0;0;4;0;5161;0;0;0;0;5;0;10902;2;0;0;0;0;0;6;0;8109;2;0;0;0;0;0;7;0;6468;0;0;0;0;8;0;6351;0;0;0;0;9;0;3211;0;0;0;0
10.03.19;19:25:00;1;207;5320;0;2;0;6182;0;0;0;0;3;0;3603;0;0;0;0;4;0;5161;0;0;0;0;5;0;10902;2;0;0;0;0;0;6;0;8109;2;0;0;0;0;0;7;0;6468;0;0;0;0;8;0;6351;0;0;0;0;9;0;3211;0;0;0;0
10.03.19;19:20:00;1;206;5303;0;2;0;6182;0;0;0;0;3;0;3603;0;0;0;0;4;0;5161;0;0;0;0;5;0;10902;2;0;0;0;0;0;6;0;8109;2;0;0;0;0;0;7;0;6468;0;0;0;0;8;0;6351;0;0;0;0;9;0;3211;0;0;0;0
10.03.19;19:15:00;1;206;5286;0;2;0;6182;0;0;0;0;3;0;3603;0;0;0;0;4;0;5161;0;0;0;0;5;0;10902;2;0;0;0;0;0;6;0;8109;2;0;0;0;0;0;7;0;6468;0;0;0;0;8;0;6351;0;0;0;0;9;0;3211;0;0;0;0
10.03.19;19:10:00;1;205;5269;0;2;0;6182;0;0;0;0;3;0;3603;0;0;0;0;4;0;5161;0;0;0;0;5;0;10902;2;0;0;0;0;0;6;0;8109;2;0;0;0;0;0;7;0;6468;0;0;0;0;8;0;6351;0;0;0;0;9;0;3211;0;0;0;0
10.03.19;19:05:00;1;205;5251;0;2;0;6182;0;0;0;0;3;0;3603;0;0;0;0;4;0;5161;0;0;0;0;5;0;10902;2;0;0;0;0;0;6;0;8109;2;0;0;0;0;0;7;0;6468;0;0;0;0;8;0;6351;0;0;0;0;9;0;3211;0;0;0;0
10.03.19;19:00:00;1;204;5234;0;2;0;6182;0;0;0;0;3;0;3603;0;0;0;0;4;0;5161;0;0;0;0;5;0;10902;2;0;0;0;0;0;6;0;8109;2;0;0;0;0;0;7;0;6468;0;0;0;0;8;0;6351;0;0;0;0;9;0;3211;0;0;0;0
10.03.19;18:55:00;1;261;5217;0;2;0;6182;0;0;0;0;3;0;3603;0;0;0;0;4;0;5161;0;0;0;0;5;0;10902;2;0;0;0;0;0;6;0;8109;2;0;0;0;0;0;7;0;6468;0;0;0;0;8;0;6351;0;0;0;0;9;0;3211;0;0;0;0
10.03.19;18:50:00;1;312;5195;0;2;0;6182;0;0;0;0;3;0;3603;0;0;0;0;4;0;5161;0;0;0;0;5;0;10902;2;0;0;0;0;0;6;0;8109;2;0;0;0;0;0;7;0;6468;0;0;0;0;8;0;6351;0;0;0;0;9;0;3211;0;0;0;0
10.03.19;18:45:00;1;282;5169;0;2;0;6182;0;0;0;0;3;0;3603;0;0;0;0;4;0;5161;0;0;0;0;5;0;10902;2;0;0;0;0;0;6;0;8109;2;0;0;0;0;0;7;0;6468;0;0;0;0;8;0;6351;0;0;0;0;9;0;3211;0;0;0;0
10.03.19;18:40:00;1;269;5145;0;2;0;6182;0;0;0;0;3;0;3603;0;0;0;0;4;0;5161;0;0;0;0;5;0;10902;2;0;0;0;0;0;6;0;8109;2;0;0;0;0;0;7;0;6468;0;0;0;0;8;0;6351;0;0;0;0;9;0;3211;0;0;0;0
10.03.19;18:35:00;1;270;5122;0;2;0;6182;0;0;0;0;3;0;3603;0;0;0;0;4;0;5161;0;0;0;0;5;0;10902;2;0;0;0;0;0;6;0;8109;2;0;0;0;0;0;7;0;6468;0;0;0;0;8;0;6351;0;0;0;0;9;0;3211;0;0;0;0
10.03.19;18:30:00;1;271;5100;0;2;0;6182;0;0;0;0;3;0;3603;0;0;42;3;4;0;5161;0;0;0;0;5;0;10902;2;0;0;0;0;0;6;0;8109;2;0;0;0;0;0;7;0;6468;0;0;0;0;8;0;6351;0;0;0;0;9;0;3211;0;0;0;0
10.03.19;18:25:00;1;271;5077;0;2;0;6182;0;0;237;14;3;0;3603;6;0;309;19;4;0;5161;0;0;59;16;5;0;10902;2;0;0;0;0;0;6;0;8109;2;0;0;0;0;0;7;0;6468;0;0;0;0;8;0;6351;0;0;0;0;9;0;3211;0;0;0;0
10.03.19;18:20:00;1;276;5054;0;2;0;6182;6;0;310;17;3;0;3603;6;2;364;19;4;0;5161;1;0;102;19;5;0;10902;2;0;0;68;67;5;6;0;8109;0;2;0;35;56;5;7;0;6468;0;0;0;0;8;0;6351;0;0;0;0;9;0;3211;0;0;49;3
10.03.19;18:15:00;1;203;5031;0;2;0;6182;6;0;349;17;3;0;3603;6;1;425;19;4;0;5161;1;0;155;20;5;0;10902;23;0;0;365;363;27;6;0;8109;23;12;0;180;474;26;7;0;6468;6;0;307;19;8;0;6351;6;0;308;19;9;0;3211;6;0;317;15
10.03.19;18:10:00;1;203;5014;0;2;0;6182;6;0;373;18;3;1;3603;6;3;433;20;4;0;5161;1;0;196;20;5;4;10902;1;0;0;392;614;27;6;0;8109;23;11;0;181;532;26;7;0;6468;6;0;384;20;8;0;6351;6;0;373;19;9;0;3211;6;0;407;15
10.03.19;18:05:00;1;246;4997;0;2;0;6182;6;0;392;18;3;2;3603;6;4;485;20;4;0;5161;1;0;219;21;5;22;10901;1;0;2;397;628;28;6;0;8109;23;9;1;444;558;27;7;0;6468;6;3;411;20;8;1;6351;6;1;424;20;9;0;3211;6;0;464;16
10.03.19;18:00:00;1;248;4976;0;2;52;6182;6;82;366;19;3;2;3603;6;7;516;20;4;17;5161;3;18;199;21;5;82;10899;4;8;17;363;574;29;6;52;8108;4;25;24;455;427;28;7;1;6468;6;4;454;20;8;3;6351;6;5;445;20;9;1;3211;3;6;455;16
10.03.19;17:55:00;1;220;4956;0;2;91;6178;4;126;358;20;3;26;3603;6;37;508;21;4;45;5160;3;47;202;22;5;107;10892;4;27;30;363;574;29;6;70;8104;4;38;37;455;427;28;7;15;6468;6;25;451;21;8;3;6351;6;7;465;20;9;0;3211;6;4;509;16
10.03.19;17:50:00;1;218;4937;0;2;265;6170;4;304;356;20;3;131;3601;6;163;438;21;4;181;5156;3;189;221;22;5;136;10882;4;41;44;363;574;29;6;87;8098;4;40;37;455;427;28;7;80;6467;6;100;432;21;8;31;6351;6;60;407;21;9;3;3211;6;8;519;16
10.03.19;17:45:00;1;206;4918;0;2;527;6148;4;576;354;21;3;312;3590;4;355;426;22;4;404;5141;5;420;234;22;5;174;10871;4;63;61;363;574;29;6;116;8090;4;70;72;455;427;28;7;174;6460;4;212;415;21;8;62;6348;4;99;396;21;9;4;3211;6;7;536;17
10.03.19;17:40:00;1;204;4901;0;2;706;6105;4;761;355;21;3;404;3564;4;449;428;22;4;541;5108;5;563;234;22;5;215;10856;4;86;82;363;574;29;6;146;8081;4;76;75;455;427;28;7;242;6446;4;276;403;21;8;121;6343;4;152;370;21;9;6;3211;6;11;537;17
10.03.19;17:35:00;1;203;4884;0;2;884;6047;4;944;358;22;3;507;3531;4;557;435;22;4;703;5063;5;732;242;22;5;287;10838;4;119;119;363;574;29;6;204;8068;4;112;106;455;427;28;7;343;6426;4;379;381;21;8;277;6333;4;316;423;21;9;0;3210;6;0;575;17
10.03.19;17:30:00;1;202;4867;0;2;1047;5974;4;1114;366;22;3;592;3489;4;644;429;22;4;831;5005;5;865;242;22;5;385;10814;4;170;166;363;574;29;6;283;8051;4;124;131;455;468;28;7;494;6398;4;530;375;21;8;502;6311;4;551;454;21;9;73;3210;4;105;478;18
10.03.19;17:25:00;1;203;4850;0;2;1161;5887;4;1230;359;21;3;645;3440;4;702;439;22;4;928;4936;5;966;240;22;5;446;10781;4;198;204;350;588;29;6;391;8026;4;189;198;539;555;28;7;671;6357;4;713;401;21;8;713;6270;4;764;475;21;9;76;3204;4;110;494;18
10.03.19;17:20:00;1;220;4833;0;2;1251;5790;4;1327;365;21;3;713;3386;4;772;439;22;4;1053;4858;5;1097;243;22;5;646;10744;4;327;257;402;568;29;6;545;7993;4;253;255;578;562;28;7;917;6301;4;975;417;21;8;823;6210;4;876;486;21;9;118;3198;4;152;525;18
10.03.19;17:15:00;1;245;4814;0;2;916;5683;4;979;362;20;3;523;3325;4;578;469;21;4;795;4768;5;827;235;22;5;548;10687;4;253;237;389;593;29;6;426;7945;4;223;214;500;462;28;7;897;6223;4;957;438;22;8;711;6140;4;764;456;21;9;100;3188;4;129;465;18
10.03.19;17:10:00;1;248;4794;0;2;457;5604;4;509;381;20;3;197;3279;4;240;479;21;4;310;4699;5;323;227;22;5;440;10644;4;202;188;380;599;29;6;336;7912;4;178;191;514;497;28;7;196;6147;4;245;459;22;8;180;6079;4;220;444;22;9;77;3179;4;108;487;18
10.03.19;17:05:00;1;231;4773;0;2;526;5565;4;578;385;21;3;323;3263;4;372;510;22;4;533;4673;5;555;233;22;5;892;10605;4;439;385;399;629;29;6;699;7882;4;361;330;569;494;28;7;691;6130;4;754;457;22;8;525;6063;4;567;442;22;9;184;3173;4;218;491;19
10.03.19;17:00:00;1;204;4755;0;2;571;5522;4;622;363;21;3;275;3237;4;319;464;21;4;437;4630;5;454;226;22;5;588;10530;4;282;247;374;598;29;6;325;7829;4;167;159;459;424;28;7;310;6073;4;356;453;22;8;317;6021;4;363;452;22;9;137;3157;4;182;460;19
10.03.19;16:55:00;1;203;4738;0;2;135;5461;4;171;372;21;3;19;3208;6;33;536;21;4;75;4582;5;79;205;22;5;272;10490;4;118;108;363;574;29;6;181;7801;4;78;75;455;427;28;7;98;6045;4;137;452;22;8;98;5991;4;136;449;22;9;11;3145;4;17;546;19
10.03.19;16:50:00;1;204;4721;0;2;111;5450;4;149;363;21;3;59;3207;4;97;468;22;4;54;4576;3;56;198;23;5;251;10467;4;107;98;363;574;29;6;169;7786;4;100;93;455;427;28;7;87;6036;4;128;429;23;8;80;5983;4;116;441;22;9;9;3144;3;14;533;19
10.03.19;16:45:00;1;204;4704;0;2;184;5440;4;226;379;22;3;104;3202;4;147;493;22;4;133;4571;5;139;213;23;5;433;10445;4;201;181;373;592;29;6;307;7771;4;149;149;510;487;28;7;165;6029;4;210;460;23;8;163;5976;4;204;447;23;9;33;3143;6;45;553;20
10.03.19;16:40:00;1;255;4687;0;2;625;5425;4;685;391;23;3;397;3193;4;451;497;23;4;599;4560;5;624;230;23;5;1339;10405;4;687;581;410;646;29;6;916;7743;4;440;433;580;549;28;7;714;6015;4;770;460;23;8;692;5963;4;751;467;23;9;372;3140;4;418;520;21
10.03.19;16:35:00;1;268;4665;0;2;787;5375;4;851;400;23;3;448;3161;4;502;480;23;4;733;4513;5;763;233;24;5;1296;10302;4;656;558;412;657;29;6;952;7665;4;508;502;573;540;28;7;956;5959;4;1018;455;23;8;1113;5908;4;1186;467;23;9;413;3111;4;461;512;21
10.03.19;16:30:00;1;287;4643;0;2;1378;5311;4;1474;421;24;3;713;3125;4;778;474;23;4;1010;4454;5;1052;232;24;5;2056;10191;4;1083;908;419;673;29;6;1393;7580;4;668;691;613;562;28;7;1519;5881;4;1592;489;23;8;1723;5818;4;1809;463;23;9;706;3077;4;770;519;21
10.03.19;16:25:00;1;313;4619;0;2;1759;5191;4;1864;412;23;3;960;3064;4;1031;474;23;4;1530;4370;5;1594;244;23;5;2338;10008;4;1223;1017;427;681;29;6;1720;7445;4;894;845;589;551;28;7;1658;5758;4;1744;469;23;8;1615;5680;4;1702;469;23;9;1026;3022;4;1098;517;21
10.03.19;16:20:00;1;315;4593;0;2;564;5044;4;617;385;23;3;337;2985;4;388;484;23;4;492;4243;5;512;231;23;5;1118;9810;4;555;476;411;640;29;6;1107;7293;4;542;526;569;547;28;7;689;5622;4;733;468;23;8;656;5548;4;708;459;23;9;333;2939;4;378;510;21
10.03.19;16:15:00;1;279;4567;0;2;1037;4998;4;1107;397;23;3;565;2957;4;624;511;23;4;827;4201;5;861;238;23;5;1444;9716;4;729;621;419;674;29;6;1067;7221;4;567;561;554;566;28;7;996;5564;4;1062;460;23;8;1299;5493;4;1379;456;23;9;624;2911;4;683;519;21
10.03.19;16:10:00;1;271;4543;0;2;793;4915;4;857;403;23;3;496;2911;4;554;514;23;4;657;4134;5;685;233;23;5;1432;9591;4;724;608;412;653;29;6;1164;7127;4;589;573;581;558;28;7;700;5484;4;747;441;23;8;685;5390;4;740;468;23;9;360;2862;4;403;496;21
10.03.19;16:05:00;1;235;4520;0;2;1987;4847;4;2101;406;23;3;1075;2869;4;1152;486;23;4;1529;4078;5;1592;235;23;5;2931;9437;4;1567;1305;423;666;29;6;2494;7016;4;1264;1249;566;554;28;7;2804;5425;4;2935;478;23;8;2359;5332;4;2479;452;23;9;1256;2832;4;1339;504;21
10.03.19;16:00:00;1;205;4500;0;2;480;4674;4;532;388;23;3;300;2778;4;345;482;23;4;409;3949;5;426;229;23;5;971;9226;4;483;407;404;636;29;6;740;6853;4;383;378;570;542;28;7;507;5180;4;554;465;23;8;521;5122;4;563;451;23;9;276;2718;4;319;497;21
10.03.19;15:55:00;1;205;4483;0;2;626;4636;4;683;394;23;3;390;2754;4;442;494;23;4;528;3916;5;550;233;23;5;1254;9145;4;638;532;409;647;29;6;935;6792;4;472;467;573;542;28;7;594;5139;4;642;469;23;8;589;5081;4;639;461;23;9;309;2695;4;353;502;21
10.03.19;15:50:00;1;205;4466;0;2;647;4585;4;707;386;24;3;385;2722;4;435;482;23;4;524;3873;5;546;234;24;5;1203;9041;4;605;509;413;646;29;6;1121;6713;4;607;592;571;551;28;7;696;5091;4;743;462;23;8;738;5033;4;788;453;23;9;496;2671;4;546;510;22
10.03.19;15:45:00;1;206;4449;0;2;2937;4532;4;3091;400;25;3;1297;2690;4;1381;474;24;4;1733;3830;5;1804;239;24;5;3244;8940;4;1754;1418;424;692;29;6;2439;6636;4;1292;1243;588;576;28;7;2625;5034;4;2768;478;23;8;2623;4973;4;2757;459;23;9;1237;2632;4;1324;535;23
10.03.19;15:40:00;1;231;4431;0;2;2423;4303;4;2558;398;24;3;1387;2588;4;1480;511;23;4;2263;3694;5;2357;244;23;5;4769;8636;4;2613;2128;421;694;29;6;3224;6407;4;1660;1621;609;578;28;7;2825;4829;4;2962;460;22;8;2970;4768;4;3121;478;22;9;1787;2535;4;1907;537;22
10.03.19;15:35:00;1;249;4412;0;2;1309;4117;4;1391;402;22;3;860;2478;4;931;512;22;4;1356;3511;5;1413;241;22;5;2676;8276;4;1404;1174;426;687;29;6;2022;6135;4;1071;1033;591;572;28;7;1912;4608;4;2011;472;22;8;1653;4530;4;1740;477;22;9;1049;2385;4;1144;536;20
10.03.19;15:30:00;1;242;4391;0;2;529;4006;4;582;387;22;3;335;2404;4;385;483;22;4;441;3388;5;460;229;22;5;1012;8076;4;512;430;407;650;29;6;786;5979;4;375;375;556;553;28;7;739;4431;4;793;441;22;8;758;4384;4;814;465;22;9;396;2285;4;443;508;20
10.03.19;15:25:00;1;206;4370;0;2;608;3959;4;668;393;22;3;371;2375;4;426;495;23;4;510;3349;5;532;231;22;5;1241;7998;4;625;532;405;653;29;6;932;5919;4;469;469;579;555;28;7;626;4366;4;673;458;22;8;603;4317;4;659;471;22;9;317;2250;4;360;519;20
10.03.19;15:20:00;1;206;4353;0;2;1215;3910;4;1297;409;23;3;771;2345;4;838;517;23;4;1067;3307;5;1111;238;23;5;2390;7890;4;1261;1047;424;698;29;6;1799;5837;4;927;897;600;576;28;7;1412;4315;4;1496;484;22;8;1409;4269;4;1491;475;22;9;783;2224;4;849;535;21
10.03.19;15:15:00;1;207;4336;0;2;1308;3813;4;1392;403;22;3;875;2283;4;947;517;23;4;1406;3223;5;1464;245;23;5;2671;7694;4;1425;1136;423;700;29;6;1954;5688;4;1005;996;593;572;28;7;1940;4201;4;2038;472;22;8;1427;4154;4;1511;474;22;9;766;2159;4;834;524;21
10.03.19;15:10:00;1;206;4319;0;2;1323;3704;4;1404;407;22;3;723;2209;4;787;505;23;4;1073;3101;5;1118;239;23;5;2107;7485;4;1096;930;417;689;28;6;1342;5528;4;697;679;584;567;27;7;1137;4041;4;1205;474;22;8;1146;4035;4;1216;473;22;9;626;2095;4;683;525;21
10.03.19;15:05:00;1;207;4301;0;2;2175;3585;4;2294;438;22;3;1128;2147;4;1212;535;22;4;2224;3008;5;2316;243;22;5;4054;7334;4;2200;1796;428;694;28;6;2762;5412;4;1418;1388;586;568;27;7;2407;3946;4;2542;504;22;8;2515;3939;4;2648;455;21;9;1286;2042;4;1379;550;21
10.03.19;15:00:00;1;204;4284;0;2;804;3411;4;871;393;21;3;485;2056;4;540;503;22;4;664;2831;5;692;238;21;5;1504;7000;4;782;640;419;680;28;6;1230;5164;4;623;601;574;553;27;7;1553;3753;4;1643;482;21;8;1587;3732;4;1668;463;21;9;989;1938;4;1062;527;19
10.03.19;14:55:00;1;208;4267;0;2;619;3336;4;680;406;21;3;373;2011;4;427;524;22;4;522;2770;5;544;231;21;5;1301;6859;4;664;555;414;654;28;6;934;5059;4;465;467;597;570;27;7;573;3621;4;624;448;22;8;556;3588;4;607;478;21;9;287;1847;4;330;530;19
10.03.19;14:50:00;1;243;4250;0;2;2625;3285;4;2775;404;20;3;1319;1980;4;1411;520;21;4;1978;2727;5;2060;249;20;5;3947;6739;4;2111;1753;433;692;28;6;2625;4972;4;1391;1338;591;555;27;7;3718;3573;4;3916;468;21;8;3559;3542;4;3745;498;21;9;1862;1823;4;1982;541;19
10.03.19;14:45:00;1;250;4229;0;2;475;3089;4;525;385;20;3;297;1877;4;344;495;21;4;410;2575;5;427;233;20;5;1007;6447;4;501;423;412;638;28;6;764;4748;4;401;395;573;557;27;7;610;3308;4;665;474;21;8;615;3287;4;663;467;21;9;321;1688;4;367;525;19
10.03.19;14:40:00;1;234;4208;0;2;354;3049;4;402;390;20;3;218;1853;4;263;503;21;4;296;2541;5;308;230;21;5;770;6363;4;375;324;405;628;28;6;588;4685;4;293;297;565;558;27;7;453;3258;4;503;466;21;8;461;3236;4;513;463;21;9;249;1662;4;289;515;19
10.03.19;14:35:00;1;208;4188;0;2;364;3020;4;412;396;20;3;221;1834;4;268;499;22;4;307;2517;5;319;229;21;5;811;6303;4;391;345;408;626;28;6;614;4639;4;346;336;566;551;27;7;451;3219;4;489;470;21;8;442;3195;4;484;457;21;9;232;1640;4;268;502;19
10.03.19;14:30:00;1;246;4170;0;2;509;2990;4;561;393;21;3;314;1816;4;363;489;22;4;427;2491;5;444;232;21;5;1070;6235;4;530;456;412;641;28;6;801;4588;4;383;383;578;545;27;7;549;3181;4;596;470;22;8;554;3159;4;601;460;21;9;294;1621;4;337;509;19
10.03.19;14:25:00;1;317;4149;0;2;1088;2949;4;1158;402;21;3;690;1791;4;757;524;22;4;945;2457;5;984;242;21;5;2125;6139;4;1125;929;420;682;28;6;1610;4516;4;807;793;593;572;27;7;995;3137;4;1064;474;22;8;999;3114;4;1057;477;21;9;534;1597;4;586;532;19
10.03.19;14:20:00;1;826;4123;0;2;867;2860;4;931;408;21;3;547;1735;4;605;511;22;4;761;2380;5;792;238;21;5;1806;5966;4;935;783;419;677;28;6;1356;4385;4;700;682;601;570;27;7;944;3056;4;1007;478;22;8;960;3033;4;1013;470;21;9;528;1553;4;580;521;19